Back to catalog

CZ-4C DEB

AliveSSO
NORAD 35251·DEBRIS·🇨🇳 China

Launched Nov 11, 2007 from Taiyuan Satellite Launch Center

Loading…

Next Passes (next 24 hours)

TLE

FreshSource: Space-Track

Epoch: Sep 14, 2026, 06:23 UTC

1 35251U 07055F   26257.26622012  .00004656  00000-0  66145-3 0  9992
2 35251  97.9206 191.4239 0136186 307.3034  51.5823 14.71202316990879

Track CZ-4C DEB in real time with AllMySat

Download on the App Store